www.pogodaiklimat.ru
ПОГОДА в Сурском

Архив погоды в Сурском (Ульяновская область, Россия)

Время
(UTC), дата
15 17.07
18 17.07
21 17.07
00 18.07
03 18.07
06 18.07
09 18.07
12 18.07
15 18.07
18 18.07
21 18.07
00 19.07
03 19.07
06 19.07
09 19.07
12 19.07
15 19.07
18 19.07
21 19.07
00 20.07
03 20.07
06 20.07
09 20.07
12 20.07
15 20.07
18 20.07
21 20.07
00 21.07
03 21.07
06 21.07
09 21.07
12 21.07
15 21.07
18 21.07
21 21.07
00 22.07
03 22.07
06 22.07
09 22.07
12 22.07
15 22.07
18 22.07
21 22.07
00 23.07
03 23.07
06 23.07
09 23.07
12 23.07
15 23.07
18 23.07
21 23.07
00 24.07
03 24.07
06 24.07
09 24.07
Ветер
(напр.,м/с)
Видим. Явления Облачность Т
(С)
Тd
(С)
f
(%)
Тe
(С)
Тes
(С)
Комфортность P
(гПа)
Po
(гПа)
Тmin
(С)
Tmax
(С)
R
(мм)
R24
(мм)
S
(см)
штиль 0 20 км 3/0
[Ci fib]
+28.2 +10.9 34 +29 +31 жарко 1015.5 1004.2 +28.5
З 1 20 км 3/0
[Ci fib]
+19.0 +14.6 76 +21 +21 комфорт 1015.5 1003.8
штиль 0 20 км 3/0
[Ci fib]
+15.4 +13.1 86 +15 +15 1015.3 1003.5
штиль 0 20 км 3/0
[Ac trans]
+13.6 +12.3 92 +13 +13 1015.1 1003.2
штиль 0 20 км 5/0
[Cc]
+18.8 +13.8 73 +20 +22 1014.1 1002.4 +13.5
СЗ 2 20 км 8/8 800 м
[Cu med, cong]
+25.4 +14.3 50 +28 +30 жарко 1013.3 1001.9
СВ 1 20 км 10/8 800 м
[Cu med, cong Ci fib]
+27.8 +15.6 47 +31 +34 душно 1012.5 1001.2
З 2 20 км 9/6 800 м
[Cu med, cong Ac cuf]
+29.9 +12.2 34 +31 +33 жарко 1011.2 1000.0
С 2 20 км 6/3 600 м
[Cu hum Ci fib]
+28.6 +10.8 33 +29 +30 жарко 1010.5 999.2 +30.0
С 2 20 км 4/0
[Ci fib]
+23.6 +13.0 51 +26 +26 жарко 1011.6 1000.2
штиль 0 20 км ясно +15.2 +12.6 84 +15 +15 1011.9 1000.1
штиль 0 20 км ясно +12.5 +11.4 93 +12 +12 1011.4 999.5
ЮВ 1 20 км 3/0
[Ci fib]
+16.5 +13.4 82 +17 +20 1011.5 999.7 +11.7
В 1 20 км 8/5 600 м
[Cu med, cong Ci fib]
+25.2 +13.6 49 +27 +33 жарко 1010.4 999.0
ЮВ 1 20 км 10/6 800 м
[Cu med, cong Ci fib]
+28.1 +12.1 37 +29 +35 жарко 1008.7 997.4
СВ 2 20 км 10/8 800 м
[Cu med, cong Ci fib]
+29.1 +11.6 34 +30 +31 жарко 1007.6 996.4
СВ 2 20 км 10/5 600 м
[Sc Ac As]
+26.8 +12.9 42 +28 +29 жарко 1006.4 995.1 +29.3
штиль 0 20 км 10/10 800 м
[Sc]
+21.4 +16.4 73 +25 +25 комфорт 1006.6 995.1
З 1 20 км 10/5 600 м
[Sc Ac As]
+19.2 +15.4 79 +22 +22 комфорт 1006.1 994.5
З 1 4000 м слаб. дождь 10/10 600 м
[Frnb Ns]
+17.9 +16.3 90 +19 +19 1005.8 994.2
штиль 0 20 км в посл. час дождь 10/4 600 м
[Sc Ac As]
+18.2 +17.2 94 +19 +19 1005.7 994.1 +17.5 0.5
штиль 0 20 км {дождь} 10/8 800 м
[Sc Ac As]
+20.6 +18.1 86 +24 +25 комфорт 1005.4 993.9
ЮЗ 1 20 км 10/10 800 м
[Cu med, cong]
+23.3 +16.0 64 +28 +28 душно 1005.1 993.7
ЮВ 1 20 км 9/9 800 м
[Cu med, cong]
+25.0 +15.1 54 +28 +29 жарко 1004.5 993.1
З 3 20 км 5/3 600 м
[Cu med, cong Ci fib]
+24.7 +16.0 58 +28 +29 душно 1004.1 992.8 +26.1
З 1 20 км 4/3 600 м
[Cu med, cong Ci sp]
+18.3 +15.8 85 +20 +20 1005.1 993.6
З 1 20 км 5/0
[Ci]
+15.9 +14.8 93 +17 +17 1005.5 993.8
штиль 0 20 км 3/0
[Ci fib]
+12.9 +12.0 94 +12 +12 1005.9 994.1
ЮВ 1 20 км ясно +15.8 +14.7 93 +16 +19 1006.0 994.3 +11.6
СЗ 2 20 км 8/8 800 м
[Cu med, cong]
+20.7 +16.4 76 +25 +27 комфорт 1005.8 994.3
З 3 20 км 9/9 800 м
[Cu med, cong]
+22.9 +15.2 62 +27 +28 душно 1005.6 994.2
З 2 20 км 9/9 800 м
[Cu med, cong]
+25.7 +14.0 48 +28 +29 жарко 1004.8 993.5
З 2 20 км 9/6 800 м
[Cu med, cong Ac cast Ci fib]
+25.6 +14.6 51 +28 +29 жарко 1005.0 993.7 +27.5
З 1 20 км 6/0
[Ci fib]
+19.3 +16.0 81 +22 +22 комфорт 1005.8 994.3
З 1 20 км 4/0
[Ci fib]
+15.1 +14.0 93 +16 +16 1005.6 993.9
З 1 н/о н/о +14.2 +13.3 94 +14 +14 1006.0 994.2
З 2 20 км 10/0
[As trans]
+16.7 +15.7 94 +17 +18 1005.7 994.1 +13.9
З 2 20 км 10/10 800 м
[Cu hum]
+19.8 +16.2 80 +23 +23 комфорт 1005.6 994.1
СЗ 2 20 км 10/10 800 м
[Cb cap]
+21.7 +16.2 71 +25 +25 комфорт 1005.9 994.4
СВ 2 4000 м слаб. дождь {ливн. дождь} 10/10 600 м
[Frnb Ns]
+18.5 +17.3 93 +20 +20 1008.1 996.5
СВ 3 10 км слаб. дождь 10/5 600 м
[Frnb As op]
+16.4 +15.1 92 +16 +16 1010.1 998.4 +22.4 14
СВ 1 20 км {дождь} 10/4 600 м
[Cu hum Ac As]
+15.7 +13.6 87 +16 +16 1011.5 999.7
С 1 20 км 10/5 600 м
[Sc Ac As]
+15.3 +13.1 87 +16 +16 1011.5 999.7
С 2 20 км 10/8 800 м
[Cu hum Ac As]
+14.3 +12.2 87 +14 +14 1011.7 999.9
С 1 20 км 10/5 600 м
[Sc Ac As]
+14.1 +11.5 84 +14 +15 1012.6 1000.7 +13.9 0.0
СВ 4 20 км 8/8 800 м
[Cu med, cong]
+16.5 +9.4 63 +16 +17 1012.3 1000.5
С 2 20 км 10/6 800 м
[Cu med, cong Ac As]
+17.4 +9.9 61 +18 +20 1012.3 1000.6
СВ 2 20 км 9/9 800 м
[Cu med, cong]
+19.9 +9.4 51 +22 +23 комфорт 1011.8 1000.2
С 2 20 км 8/8 800 м
[Sc diur, vesp]
+19.7 +11.1 58 +22 +22 комфорт 1011.5 999.9 +20.7
СЗ 2 20 км 6/6 800 м
[Sc]
+16.0 +11.9 77 +16 +16 1011.5 999.7
штиль 0 20 км 5/0
[Ac trans]
+13.0 +11.7 92 +12 +12 1011.1 999.2
штиль 0 20 км 3/0
[Ci fib]
+11.8 +10.9 94 +11 +11 1010.6 998.7
штиль 0 20 км ясно +14.7 +12.2 85 +14 +17 1010.5 998.7 +10.4
В 2 20 км 5/0
[Ac lent Cc]
+22.5 +10.7 47 +24 +32 комфорт 1009.0 997.5
С 3 20 км 10/5 600 м
[Cu med, cong Ac lent]
+24.9 +8.5 35 +25 +27 комфорт 1007.5 996.1
Местоположение метеостанции Сурское (Ульяновская область, Россия): широта 54.48 долгота 46.70 высота над уровнем моря 100 м.
В архиве по умолчанию представлена погода в Сурском за последнюю неделю. Архивные данные за месяц целиком и за предыдущие месяцы, начиная с января 2011 года, Вы можете получить, выбрав интересующий диапазон дат из раскрывающегося списка и нажав кнопку "Найти!".
*Определитесь, кто Вы:
Внимание! Время в таблицах - всемирное. Для получения местного времени необходимо прибавить поправку, которая равна 4 ч.
Некоторые строки с данными для отдельных станций могут быть выделены курсивом. Это означает, что фактические данные отсутствуют по различным причинам, а приведенные значения являются расчетными модельными данными для данного пункта наблюдений.
Смотрите также архив погоды в соседних городах и на ближайших метеорологических станциях:
Партнеры нашего сайта:      
Пояснения к столбцам:
  • Ветер - указаны скорость ветра в м/с - средняя за 10 мин, порывы в срок и между сроками (в фигурных скобках) и направление, откуда дует ветер: С - северный,
  • СВ - северо-восточный, В - восточный, ЮВ - юго-восточный, Ю - южный, ЮЗ - юго-западный, З - западный, СЗ - северо-западный.
  • Видимость - горизонтальная дальность видимости в метрах или километрах. При видимости от 1 до 10 км при отсутствии осадков обычно наблюдается дымка, при ухудшении видимости до 1 км и менее - туман. В сухую погоду видимость может ухудшаться дымом, пылью или мглою.
  • Явления - указаны атмосферные явления, наблюдавшиеся в срок или в последний час перед сроком; фигурными скобками обозначены явления, наблюдавшиеся между сроками (за 1-3 часа до срока); квадратными скобками обозначены град или гололедные отложения с указанием их диаметра в мм.
  • Облачность - указаны через наклонную черту общая и нижняя облачность в баллах и высота нижней границы облаков в метрах; квадратными скобками обозначены формы облаков: Ci - перистые, Cs - перисто-слоистые, Cc - перисто-кучевые, Ac - высококучевые, As - высокослоистые, Sc - слоисто-кучевые, Ns - слоисто-дождевые, Cu - кучевые, Cb - кучево-дождевые. Подробнее классификацию облаков см. в Атласе облаков (PDF).
  • T - Температура воздуха - температура, измеренная на высоте 2 м над землей.
  • Td - Температура точки росы - температура, при понижении до которой содержащийся в воздухе водяной пар достигнет насыщения.
  • f - Относительная влажность воздуха - влажноcть воздуха, измеренная на высоте 2 м над землей.
  • Te - Эффективная температура - температура, которую ощущает одетый по сезону человек в тени. Характеристика душности погоды. При расчете учитывается влияние влажности воздуха и скорости ветра на теплоощущения человека.
  • Tes - Эффективная температура на солнце - температура, которую ощущает человек, с поправкой на солнечный нагрев. Характеристика знойности погоды. Зависит от высоты солнца над горизонтом, облачности и скорости ветра. Ночью, в пасмурную погоду, а также при ветре 12 м/с и более поправка равна нулю.
  • P - Атмосферное давление - приведенное к уровню моря атмосферное давление.
  • Po - Атмосферное давление - измеренное на уровне метеостанции атмосферное давление.
  • Tmin - Минимальная температура - минимум температуры воздуха на высоте 2 м над землей.
  • Tmax - Максимальная температура - максимум температуры воздуха на высоте 2 м над землей.
  • R - Количество осадков - Количество выпавших осадков за период времени, мм. При наведении курсора мыши на число - период времени, за который выпало указанное количество осадков.
  • R24 - Количество осадков - Количество выпавших осадков за 24 часа, мм.
  • S - Снежный покров - Высота снежного покрова, см. При наведении курсора мыши на число - состояние снежного покрова и степень покрытия местности в баллах.